OBJECT F, 61899

Orbit data source: Space-Track

You're viewing an Uncataloged Satellite

Recently launched and/or uncataloged satellites may have evolving metadata. Metadata may include but not limited to: Owner, Maufacturer, Bus, Motor, and Mission.

OBJECT F, 61899 is a satellite owned by Yunyao yuhang (CN) in SSO that was launched on Mon, 11 Nov 2024 UTC via a LIJIAN-1 launch vehicle from the Jiuquan Satellite Launch Center, China (JSC). Unknown objects in Earth's orbit typically refer to objects detected orbiting the Earth but have not yet been identified or cataloged. These objects could be anything from previously untracked satellites, spent rocket stages, debris from satellite collisions, or even natural meteoroids temporarily captured by Earth's gravity.

Loading next visibility...
OBJECT F details
Identifier
61899, 2024-205F
Orbit
SSO
Last TLE update13 hours ago
Origin
Flag of CNYunyao yuhang (CN / PRC)
ManufacturerYunyao yuhang
MissionOperational spacecraft
Bus & MotorYY-1, Unknown motor
Mass~50 kg wet, ~50 kg dry
Launch date (UTC)
2024-11-11 (1 month ago)
Launch vehicle
LIJIAN-1
Launch site
Jiuquan Satellite Launch Center, China (JSC)
Object typeUnknown
Shape & HBRUnknown
Radar Cross SectionMedium (>0.1 m² and <1 m²)

Expand to show TLE details & history

TLE from 13 hours ago
0 OBJECT F
1 61899U 24205F   24348.31082703  .00015407  00000-0  80654-3 0  9994
2 61899  97.4703  59.9365 0013636 170.2358 189.9142 15.15832927  4839
Epoch: 2024-12-13T07:27Z
Definitive object data (Epoch: 2024-12-13T07:27:35.455Z)
Latitude-0.00005°
Longitude-134.43986°
Altitude530.8 km
Speed7.592 km/s
True Right ascension03h 59m 44s
True Declination0° 00' 00"
Sunlit
Object was in full shadow at TLE epoch
Visualization TLE readout
Latitude22.61087°
Longitude49.22131°
Altitude512.064 km
Speed7.615 km/s
Apparent Right ascension12h 54m 51s
Apparent Declination-17° 07' 60"
Sunlit
Object is in daylight
Visualization observer readout
Local Sidereal Time19:21:09
Azimuth260.685° W
Elevation-15.842°
Doppler factor1
Orbital elements
Apogee altitude524.825 km
Perigee altitude506.025 km
Semi-major axis6,893.562 km
Eccentricity0.0013636
Inclination97.4703°
RAAN59.9365°
Arg. of periapsis170.2358°
True anomaly189.88734°
Mean anomaly189.9142°
Eccentric anomaly189.90077°
Mean motion3.79208 °/min
BSTAR0.00080654
Orbital period94.93 mins
Loading maneuver chart data...
Loading historical data...
Loading historical data...
Loading historical data...
Loading historical data...
Loading historical data...
Loading historical data...
Loading historical data...

OBJECT F Visibility forecast

Observer location: undefined°, undefined

Span
Click to sort rows by Start time (UTC) header in descending order
Start Az.
Max El. time (UTC)
Max El. Az.
Max El.
End time (UTC)
End Az.
5 mins2024-12-14 04:12:31.530Z110.914° ESE2024-12-14 04:14:31.530Z73.408° E19.64°2024-12-14 04:17:31.530Z20.127° NNE
4 mins2024-12-14 05:47:31.530Z236.219° WSW2024-12-14 05:48:31.530Z260.32° W22.431°2024-12-14 05:51:31.530Z317.672° NNW
4 mins2024-12-14 17:19:31.530Z57.544° ENE2024-12-14 17:20:31.530Z83.779° E26.405°2024-12-14 17:23:31.530Z154.296° SSE
|